Location: Gro�sch�nbrunn
(49.5760°N, 11.8868°E)
Time: 22:51:20
(UTC+00:00)

Lacrosse 5 rocket - Pass Details

Date: 18 September 2020
Orbit: 461 x 635 km, 57.0° (Epoch: 21 October)

Event Time Altitude Azimuth Distance (km) Brightness Sun altitude
Rises 21:27:05 0° 300° (WNW) 2,848 5.7 -34.7°
Reaches altitude 10° 21:29:25 10° 307° (NW) 1,967 4.8 -34.9°
Enters shadow 21:30:50 19° 315° (NW) 1,469 4.0 -35.0°
